Year,Month,Day,Hour,Minute,Value (Times are PST for temperature in C)
2013,08,21,00,00,13.90
2013,08,21,00,01,13.90
2013,08,21,00,02,13.90
2013,08,21,00,03,13.90
2013,08,21,00,04,13.80
2013,08,21,00,05,13.80
2013,08,21,00,06,13.70
2013,08,21,00,07,13.70
2013,08,21,00,08,13.70
2013,08,21,00,09,13.60
2013,08,21,00,10,13.60
2013,08,21,00,11,13.60
2013,08,21,00,12,13.50
2013,08,21,00,13,13.50
2013,08,21,00,14,13.50
2013,08,21,00,15,13.50
2013,08,21,00,16,13.50
2013,08,21,00,17,13.50
2013,08,21,00,18,13.50
2013,08,21,00,19,13.50
2013,08,21,00,20,13.50
2013,08,21,00,21,13.50
2013,08,21,00,22,13.50
2013,08,21,00,23,13.60
2013,08,21,00,24,13.70
2013,08,21,00,25,13.70
2013,08,21,00,26,13.70
2013,08,21,00,27,13.70
2013,08,21,00,28,13.70
2013,08,21,00,29,13.70
2013,08,21,00,30,13.70
2013,08,21,00,31,13.70
2013,08,21,00,32,13.70
2013,08,21,00,33,13.70
2013,08,21,00,34,13.60
2013,08,21,00,35,13.60
2013,08,21,00,36,13.50
2013,08,21,00,37,13.50
2013,08,21,00,38,13.40
2013,08,21,00,39,13.30
2013,08,21,00,40,13.30
2013,08,21,00,41,13.20
2013,08,21,00,42,13.20
2013,08,21,00,43,13.10
2013,08,21,00,44,13.10
2013,08,21,00,45,13.10
2013,08,21,00,46,13.00
2013,08,21,00,47,13.00
2013,08,21,00,48,13.00
2013,08,21,00,49,12.90
2013,08,21,00,50,12.90
2013,08,21,00,51,12.90
2013,08,21,00,52,12.80
2013,08,21,00,53,12.80
2013,08,21,00,54,12.80
2013,08,21,00,55,12.80
2013,08,21,00,56,12.80
2013,08,21,00,57,12.70
2013,08,21,00,58,12.70
2013,08,21,00,59,12.70
2013,08,21,01,00,12.70
2013,08,21,01,01,12.60
2013,08,21,01,02,12.60
2013,08,21,01,03,12.60
2013,08,21,01,04,12.50
2013,08,21,01,05,12.50
2013,08,21,01,06,12.50
2013,08,21,01,07,12.40
2013,08,21,01,08,12.40
2013,08,21,01,09,12.40
2013,08,21,01,10,12.40
2013,08,21,01,11,12.40
2013,08,21,01,12,12.30
2013,08,21,01,13,12.30
2013,08,21,01,14,12.30
2013,08,21,01,15,12.30
2013,08,21,01,16,12.30
2013,08,21,01,17,12.30
2013,08,21,01,18,12.30
2013,08,21,01,19,12.20
2013,08,21,01,20,12.20
2013,08,21,01,21,12.20
2013,08,21,01,22,12.20
2013,08,21,01,23,12.20
2013,08,21,01,24,12.10
2013,08,21,01,25,12.10
2013,08,21,01,26,12.10
2013,08,21,01,27,12.10
2013,08,21,01,28,12.10
2013,08,21,01,29,12.10
2013,08,21,01,30,12.10
2013,08,21,01,31,12.10
2013,08,21,01,32,12.10
2013,08,21,01,33,12.10
2013,08,21,01,34,12.00
2013,08,21,01,35,12.00
2013,08,21,01,36,12.00
2013,08,21,01,37,11.90
2013,08,21,01,38,11.90
2013,08,21,01,39,11.90
2013,08,21,01,40,11.90
2013,08,21,01,41,11.90
2013,08,21,01,42,11.90
2013,08,21,01,43,11.90
2013,08,21,01,44,11.90
2013,08,21,01,45,11.90
2013,08,21,01,46,11.90
2013,08,21,01,47,11.90
2013,08,21,01,48,11.90
2013,08,21,01,49,11.90
2013,08,21,01,50,11.90
2013,08,21,01,51,11.90
2013,08,21,01,52,11.90
2013,08,21,01,53,11.90
2013,08,21,01,54,11.90
2013,08,21,01,55,11.90
2013,08,21,01,56,11.90
2013,08,21,01,57,11.90
2013,08,21,01,58,11.90
2013,08,21,01,59,11.90
2013,08,21,02,00,11.80
2013,08,21,02,01,11.80
2013,08,21,02,02,11.80
2013,08,21,02,03,11.80
2013,08,21,02,04,11.80
2013,08,21,02,05,11.80
2013,08,21,02,06,11.90
2013,08,21,02,07,11.80
2013,08,21,02,08,11.80
2013,08,21,02,09,11.80
2013,08,21,02,10,11.80
2013,08,21,02,11,11.70
2013,08,21,02,12,11.70
2013,08,21,02,13,11.70
2013,08,21,02,14,11.60
2013,08,21,02,15,11.60
2013,08,21,02,16,11.60
2013,08,21,02,17,11.60
2013,08,21,02,18,11.60
2013,08,21,02,19,11.60
2013,08,21,02,20,11.50
2013,08,21,02,21,11.50
2013,08,21,02,22,11.50
2013,08,21,02,23,11.40
2013,08,21,02,24,11.40
2013,08,21,02,25,11.40
2013,08,21,02,26,11.30
2013,08,21,02,27,11.30
2013,08,21,02,28,11.30
2013,08,21,02,29,11.20
2013,08,21,02,30,11.20
2013,08,21,02,31,11.20
2013,08,21,02,32,11.20
2013,08,21,02,33,11.20
2013,08,21,02,34,11.10
2013,08,21,02,35,11.10
2013,08,21,02,36,11.10
2013,08,21,02,37,11.10
2013,08,21,02,38,11.10
2013,08,21,02,39,11.10
2013,08,21,02,40,11.10
2013,08,21,02,41,11.00
2013,08,21,02,42,11.00
2013,08,21,02,43,11.00
2013,08,21,02,44,11.00
2013,08,21,02,45,11.00
2013,08,21,02,46,11.00
2013,08,21,02,47,11.00
2013,08,21,02,48,11.00
2013,08,21,02,49,11.00
2013,08,21,02,50,11.00
2013,08,21,02,51,11.00
2013,08,21,02,52,11.00
2013,08,21,02,53,11.00
2013,08,21,02,54,11.00
2013,08,21,02,55,11.00
2013,08,21,02,56,11.10
2013,08,21,02,57,11.10
2013,08,21,02,58,11.10
2013,08,21,02,59,11.10
2013,08,21,03,00,11.10
2013,08,21,03,01,11.10
2013,08,21,03,02,11.10
2013,08,21,03,03,11.10
2013,08,21,03,04,11.10
2013,08,21,03,05,11.10
2013,08,21,03,06,11.10
2013,08,21,03,07,11.10
2013,08,21,03,08,11.00
2013,08,21,03,09,11.00
2013,08,21,03,10,11.00
2013,08,21,03,11,11.00
2013,08,21,03,12,11.00
2013,08,21,03,13,11.00
2013,08,21,03,14,11.00
2013,08,21,03,15,11.00
2013,08,21,03,16,11.00
2013,08,21,03,17,11.00
2013,08,21,03,18,11.00
2013,08,21,03,19,11.00
2013,08,21,03,20,11.00
2013,08,21,03,21,11.00
2013,08,21,03,22,10.90
2013,08,21,03,23,10.90
2013,08,21,03,24,10.90
2013,08,21,03,25,10.90
2013,08,21,03,26,10.90
2013,08,21,03,27,10.90
2013,08,21,03,28,10.90
2013,08,21,03,29,10.90
2013,08,21,03,30,10.80
2013,08,21,03,31,10.80
2013,08,21,03,32,10.80
2013,08,21,03,33,10.80
2013,08,21,03,34,10.80
2013,08,21,03,35,10.80
2013,08,21,03,36,10.80
2013,08,21,03,37,10.80
2013,08,21,03,38,10.80
2013,08,21,03,39,10.80
2013,08,21,03,40,10.80
2013,08,21,03,41,10.80
2013,08,21,03,42,10.80
2013,08,21,03,43,10.80
2013,08,21,03,44,10.70
2013,08,21,03,45,10.70
2013,08,21,03,46,10.70
2013,08,21,03,47,10.70
2013,08,21,03,48,10.70
2013,08,21,03,49,10.70
2013,08,21,03,50,10.60
2013,08,21,03,51,10.60
2013,08,21,03,52,10.60
2013,08,21,03,53,10.60
2013,08,21,03,54,10.60
2013,08,21,03,55,10.60
2013,08,21,03,56,10.60
2013,08,21,03,57,10.60
2013,08,21,03,58,10.60
2013,08,21,03,59,10.60
2013,08,21,04,00,10.60
2013,08,21,04,01,10.60
2013,08,21,04,02,10.70
2013,08,21,04,03,10.70
2013,08,21,04,04,10.70
2013,08,21,04,05,10.70
2013,08,21,04,06,10.70
2013,08,21,04,07,10.70
2013,08,21,04,08,10.70
2013,08,21,04,09,10.70
2013,08,21,04,10,10.70
2013,08,21,04,11,10.70
2013,08,21,04,12,10.70
2013,08,21,04,13,10.70
2013,08,21,04,14,10.70
2013,08,21,04,15,10.70
2013,08,21,04,16,10.70
2013,08,21,04,17,10.70
2013,08,21,04,18,10.70
2013,08,21,04,19,10.70
2013,08,21,04,20,10.70
2013,08,21,04,21,10.70
2013,08,21,04,22,10.70
2013,08,21,04,23,10.60
2013,08,21,04,24,10.60
2013,08,21,04,25,10.60
2013,08,21,04,26,10.60
2013,08,21,04,27,10.50
2013,08,21,04,28,10.40
2013,08,21,04,29,10.40
2013,08,21,04,30,10.40
2013,08,21,04,31,10.30
2013,08,21,04,32,10.30
2013,08,21,04,33,10.30
2013,08,21,04,34,10.20
2013,08,21,04,35,10.20
2013,08,21,04,36,10.20
2013,08,21,04,37,10.20
2013,08,21,04,38,10.10
2013,08,21,04,39,10.10
2013,08,21,04,40,10.10
2013,08,21,04,41,10.10
2013,08,21,04,42,10.10
2013,08,21,04,43,10.00
2013,08,21,04,44,10.00
2013,08,21,04,45,10.00
2013,08,21,04,46,10.00
2013,08,21,04,47,9.90
2013,08,21,04,48,9.90
2013,08,21,04,49,9.90
2013,08,21,04,50,9.90
2013,08,21,04,51,9.90
2013,08,21,04,52,9.80
2013,08,21,04,53,9.80
2013,08,21,04,54,9.80
2013,08,21,04,55,9.80
2013,08,21,04,56,9.80
2013,08,21,04,57,9.80
2013,08,21,04,58,9.80
2013,08,21,04,59,9.80
2013,08,21,05,00,9.70
2013,08,21,05,01,9.70
2013,08,21,05,02,9.80
2013,08,21,05,03,9.80
2013,08,21,05,04,9.80
2013,08,21,05,05,9.80
2013,08,21,05,06,9.80
2013,08,21,05,07,9.80
2013,08,21,05,08,9.80
2013,08,21,05,09,9.80
2013,08,21,05,10,9.80
2013,08,21,05,11,9.80
2013,08,21,05,12,9.80
2013,08,21,05,13,9.80
2013,08,21,05,14,9.80
2013,08,21,05,15,9.80
2013,08,21,05,16,9.80
2013,08,21,05,17,9.80
2013,08,21,05,18,9.80
2013,08,21,05,19,9.80
2013,08,21,05,20,9.80
2013,08,21,05,21,9.80
2013,08,21,05,22,9.80
2013,08,21,05,23,9.70
2013,08,21,05,24,9.70
2013,08,21,05,25,9.70
2013,08,21,05,26,9.60
2013,08,21,05,27,9.60
2013,08,21,05,28,9.60
2013,08,21,05,29,9.60
2013,08,21,05,30,9.60
2013,08,21,05,31,9.50
2013,08,21,05,32,9.50
2013,08,21,05,33,9.50
2013,08,21,05,34,9.50
2013,08,21,05,35,9.40
2013,08,21,05,36,9.40
2013,08,21,05,37,9.40
2013,08,21,05,38,9.40
2013,08,21,05,39,9.40
2013,08,21,05,40,9.40
2013,08,21,05,41,9.40
2013,08,21,05,42,9.40
2013,08,21,05,43,9.40
2013,08,21,05,44,9.30
2013,08,21,05,45,9.30
2013,08,21,05,46,9.30
2013,08,21,05,47,9.30
2013,08,21,05,48,9.30
2013,08,21,05,49,9.30
2013,08,21,05,50,9.30
2013,08,21,05,51,9.30
2013,08,21,05,52,9.30
2013,08,21,05,53,9.30
2013,08,21,05,54,9.30
2013,08,21,05,55,9.30
2013,08,21,05,56,9.30
2013,08,21,05,57,9.30
2013,08,21,05,58,9.30
2013,08,21,05,59,9.30
2013,08,21,06,00,9.30
2013,08,21,06,01,9.30
2013,08,21,06,02,9.40
2013,08,21,06,03,9.40
2013,08,21,06,04,9.40
2013,08,21,06,05,9.40
2013,08,21,06,06,9.40
2013,08,21,06,07,9.40
2013,08,21,06,08,9.40
2013,08,21,06,09,9.40
2013,08,21,06,10,9.40
2013,08,21,06,11,9.40
2013,08,21,06,12,9.40
2013,08,21,06,13,9.40
2013,08,21,06,14,9.40
2013,08,21,06,15,9.40
2013,08,21,06,16,9.40
2013,08,21,06,17,9.40
2013,08,21,06,18,9.40
2013,08,21,06,19,9.40
2013,08,21,06,20,9.30
2013,08,21,06,21,9.30
2013,08,21,06,22,9.30
2013,08,21,06,23,9.30
2013,08,21,06,24,9.30
2013,08,21,06,25,9.30
2013,08,21,06,26,9.30
2013,08,21,06,27,9.30
2013,08,21,06,28,9.30
2013,08,21,06,29,9.30
2013,08,21,06,30,9.30
2013,08,21,06,31,9.30
2013,08,21,06,32,9.30
2013,08,21,06,33,9.30
2013,08,21,06,34,9.30
2013,08,21,06,35,9.30
2013,08,21,06,36,9.30
2013,08,21,06,37,9.30
2013,08,21,06,38,9.40
2013,08,21,06,39,9.40
2013,08,21,06,40,9.40
2013,08,21,06,41,9.40
2013,08,21,06,42,9.40
2013,08,21,06,43,9.40
2013,08,21,06,44,9.40
2013,08,21,06,45,9.40
2013,08,21,06,46,9.40
2013,08,21,06,47,9.50
2013,08,21,06,48,9.50
2013,08,21,06,49,9.50
2013,08,21,06,50,9.60
2013,08,21,06,51,9.60
2013,08,21,06,52,9.60
2013,08,21,06,53,9.60
2013,08,21,06,54,9.70
2013,08,21,06,55,9.70
2013,08,21,06,56,9.70
2013,08,21,06,57,9.70
2013,08,21,06,58,9.70
2013,08,21,06,59,9.80
2013,08,21,07,00,9.80
2013,08,21,07,01,9.80
2013,08,21,07,02,9.80
2013,08,21,07,03,9.90
2013,08,21,07,04,9.90
2013,08,21,07,05,10.00
2013,08,21,07,06,10.00
2013,08,21,07,07,10.10
2013,08,21,07,08,10.10
2013,08,21,07,09,10.20
2013,08,21,07,10,10.20
2013,08,21,07,11,10.30
2013,08,21,07,12,10.30
2013,08,21,07,13,10.30
2013,08,21,07,14,10.40
2013,08,21,07,15,10.40
2013,08,21,07,16,10.40
2013,08,21,07,17,10.40
2013,08,21,07,18,10.50
2013,08,21,07,19,10.50
2013,08,21,07,20,10.50
2013,08,21,07,21,10.50
2013,08,21,07,22,10.60
2013,08,21,07,23,10.60
2013,08,21,07,24,10.60
2013,08,21,07,25,10.70
2013,08,21,07,26,10.70
2013,08,21,07,27,10.70
2013,08,21,07,28,10.80
2013,08,21,07,29,10.80
2013,08,21,07,30,10.90
2013,08,21,07,31,11.00
2013,08,21,07,32,11.10
2013,08,21,07,33,11.20
2013,08,21,07,34,11.30
2013,08,21,07,35,11.40
2013,08,21,07,36,11.50
2013,08,21,07,37,11.60
2013,08,21,07,38,11.70
2013,08,21,07,39,11.80
2013,08,21,07,40,11.80
2013,08,21,07,41,11.80
2013,08,21,07,42,11.90
2013,08,21,07,43,11.90
2013,08,21,07,44,12.00
2013,08,21,07,45,12.00
2013,08,21,07,46,12.10
2013,08,21,07,47,12.10
2013,08,21,07,48,12.20
2013,08,21,07,49,12.20
2013,08,21,07,50,12.30
2013,08,21,07,51,12.40
2013,08,21,07,52,12.50
2013,08,21,07,53,12.60
2013,08,21,07,54,12.70
2013,08,21,07,55,12.80
2013,08,21,07,56,12.80
2013,08,21,07,57,12.90
2013,08,21,07,58,13.00
2013,08,21,07,59,13.00
2013,08,21,08,00,13.10
2013,08,21,08,01,13.10
2013,08,21,08,02,13.20
2013,08,21,08,03,13.20
2013,08,21,08,04,13.20
2013,08,21,08,05,13.30
2013,08,21,08,06,13.40
2013,08,21,08,07,13.40
2013,08,21,08,08,13.50
2013,08,21,08,09,13.60
2013,08,21,08,10,13.60
2013,08,21,08,11,13.70
2013,08,21,08,12,13.80
2013,08,21,08,13,13.80
2013,08,21,08,14,13.80
2013,08,21,08,15,13.90
2013,08,21,08,16,14.00
2013,08,21,08,17,14.00
2013,08,21,08,18,14.10
2013,08,21,08,19,14.20
2013,08,21,08,20,14.20
2013,08,21,08,21,14.30
2013,08,21,08,22,14.30
2013,08,21,08,23,14.40
2013,08,21,08,24,14.40
2013,08,21,08,25,14.50
2013,08,21,08,26,14.60
2013,08,21,08,27,14.60
2013,08,21,08,28,14.60
2013,08,21,08,29,14.70
2013,08,21,08,30,14.70
2013,08,21,08,31,14.80
2013,08,21,08,32,14.80
2013,08,21,08,33,14.90
2013,08,21,08,34,15.00
2013,08,21,08,35,15.00
2013,08,21,08,36,15.00
2013,08,21,08,37,15.00
2013,08,21,08,38,15.20
2013,08,21,08,39,15.30
2013,08,21,08,40,15.40
2013,08,21,08,41,15.50
2013,08,21,08,42,15.60
2013,08,21,08,43,15.70
2013,08,21,08,44,15.70
2013,08,21,08,45,15.80
2013,08,21,08,46,15.90
2013,08,21,08,47,15.90
2013,08,21,08,48,16.00
2013,08,21,08,49,16.10
2013,08,21,08,50,16.20
2013,08,21,08,51,16.30
2013,08,21,08,52,16.40
2013,08,21,08,53,16.50
2013,08,21,08,54,16.50
2013,08,21,08,55,16.70
2013,08,21,08,56,16.80
2013,08,21,08,57,16.90
2013,08,21,08,58,17.00
2013,08,21,08,59,17.20
2013,08,21,09,00,17.20
2013,08,21,09,01,17.30
2013,08,21,09,02,17.30
2013,08,21,09,03,17.40
2013,08,21,09,04,17.40
2013,08,21,09,05,17.40
2013,08,21,09,06,17.50
2013,08,21,09,07,17.50
2013,08,21,09,08,17.60
2013,08,21,09,09,17.70
2013,08,21,09,10,17.70
2013,08,21,09,11,17.80
2013,08,21,09,12,17.90
2013,08,21,09,13,18.00
2013,08,21,09,14,18.20
2013,08,21,09,15,18.40
2013,08,21,09,16,18.50
2013,08,21,09,17,18.60
2013,08,21,09,18,18.80
2013,08,21,09,19,19.00
2013,08,21,09,20,19.10
2013,08,21,09,21,19.20
2013,08,21,09,22,19.30
2013,08,21,09,23,19.30
2013,08,21,09,24,19.40
2013,08,21,09,25,19.40
2013,08,21,09,26,19.30
2013,08,21,09,27,19.30
2013,08,21,09,28,19.40
2013,08,21,09,29,19.40
2013,08,21,09,30,19.50
2013,08,21,09,31,19.60
2013,08,21,09,32,19.70
2013,08,21,09,33,19.80
2013,08,21,09,34,19.90
2013,08,21,09,35,20.00
2013,08,21,09,36,20.00
2013,08,21,09,37,20.10
2013,08,21,09,38,20.20
2013,08,21,09,39,20.30
2013,08,21,09,40,20.30
2013,08,21,09,41,20.40
2013,08,21,09,42,20.50
2013,08,21,09,43,20.60
2013,08,21,09,44,20.60
2013,08,21,09,45,20.70
2013,08,21,09,46,20.70
2013,08,21,09,47,20.80
2013,08,21,09,48,20.80
2013,08,21,09,49,20.90
2013,08,21,09,50,20.90
2013,08,21,09,51,20.90
2013,08,21,09,52,20.90
2013,08,21,09,53,20.90
2013,08,21,09,54,20.90
2013,08,21,09,55,20.90
2013,08,21,09,56,20.90
2013,08,21,09,57,20.90
2013,08,21,09,58,20.90
2013,08,21,09,59,20.90
2013,08,21,10,00,20.90
2013,08,21,10,01,20.90
2013,08,21,10,02,21.00
2013,08,21,10,03,21.10
2013,08,21,10,04,21.10
2013,08,21,10,05,21.20
2013,08,21,10,06,21.30
2013,08,21,10,07,21.40
2013,08,21,10,08,21.40
2013,08,21,10,09,21.50
2013,08,21,10,10,21.60
2013,08,21,10,11,21.60
2013,08,21,10,12,21.70
2013,08,21,10,13,21.70
2013,08,21,10,14,21.70
2013,08,21,10,15,21.70
2013,08,21,10,16,21.70
2013,08,21,10,17,21.70
2013,08,21,10,18,21.70
2013,08,21,10,19,21.70
2013,08,21,10,20,21.70
2013,08,21,10,21,21.70
2013,08,21,10,22,21.70
2013,08,21,10,23,21.70
2013,08,21,10,24,21.80
2013,08,21,10,25,21.80
2013,08,21,10,26,21.80
2013,08,21,10,27,21.80
2013,08,21,10,28,21.90
2013,08,21,10,29,22.00
2013,08,21,10,30,22.00
2013,08,21,10,31,22.10
2013,08,21,10,32,22.20
2013,08,21,10,33,22.30
2013,08,21,10,34,22.40
2013,08,21,10,35,22.50
2013,08,21,10,36,22.50
2013,08,21,10,37,22.60
2013,08,21,10,38,22.60
2013,08,21,10,39,22.70
2013,08,21,10,40,22.70
2013,08,21,10,41,22.70
2013,08,21,10,42,22.70
2013,08,21,10,43,22.60
2013,08,21,10,44,22.60
2013,08,21,10,45,22.60
2013,08,21,10,46,22.60
2013,08,21,10,47,22.60
2013,08,21,10,48,22.60
2013,08,21,10,49,22.60
2013,08,21,10,50,22.60
2013,08,21,10,51,22.60
2013,08,21,10,52,22.60
2013,08,21,10,53,22.60
2013,08,21,10,54,22.70
2013,08,21,10,55,22.80
2013,08,21,10,56,22.90
2013,08,21,10,57,23.10
2013,08,21,10,58,23.10
2013,08,21,10,59,23.20
2013,08,21,11,00,23.30
2013,08,21,11,01,23.30
2013,08,21,11,02,23.30
2013,08,21,11,03,23.30
2013,08,21,11,04,23.30
2013,08,21,11,05,23.30
2013,08,21,11,06,23.30
2013,08,21,11,07,23.30
2013,08,21,11,08,23.30
2013,08,21,11,09,23.30
2013,08,21,11,10,23.30
2013,08,21,11,11,23.30
2013,08,21,11,12,23.40
2013,08,21,11,13,23.50
2013,08,21,11,14,23.60
2013,08,21,11,15,23.60
2013,08,21,11,16,23.70
2013,08,21,11,17,23.80
2013,08,21,11,18,23.80
2013,08,21,11,19,23.90
2013,08,21,11,20,23.90
2013,08,21,11,21,23.90
2013,08,21,11,22,23.90
2013,08,21,11,23,24.00
2013,08,21,11,24,24.10
2013,08,21,11,25,24.10
2013,08,21,11,26,24.10
2013,08,21,11,27,24.10
2013,08,21,11,28,24.10
2013,08,21,11,29,24.20
2013,08,21,11,30,24.30
2013,08,21,11,31,24.40
2013,08,21,11,32,24.40
2013,08,21,11,33,24.50
2013,08,21,11,34,24.60
2013,08,21,11,35,24.70
2013,08,21,11,36,24.80
2013,08,21,11,37,24.80
2013,08,21,11,38,24.70
2013,08,21,11,39,24.60
2013,08,21,11,40,24.50
2013,08,21,11,41,24.40
2013,08,21,11,42,24.40
2013,08,21,11,43,24.30
2013,08,21,11,44,24.20
2013,08,21,11,45,24.10
2013,08,21,11,46,24.10
2013,08,21,11,47,24.10
2013,08,21,11,48,24.10
2013,08,21,11,49,24.10
2013,08,21,11,50,24.00
2013,08,21,11,51,24.00
2013,08,21,11,52,23.90
2013,08,21,11,53,23.90
2013,08,21,11,54,23.90
2013,08,21,11,55,23.90
2013,08,21,11,56,23.90
2013,08,21,11,57,23.90
2013,08,21,11,58,24.00
2013,08,21,11,59,24.00
2013,08,21,12,00,24.00
2013,08,21,12,01,24.00
2013,08,21,12,02,24.10
2013,08,21,12,03,24.10
2013,08,21,12,04,24.20
2013,08,21,12,05,24.20
2013,08,21,12,06,24.20
2013,08,21,12,07,24.20
2013,08,21,12,08,24.30
2013,08,21,12,09,24.40
2013,08,21,12,10,24.50
2013,08,21,12,11,24.50
2013,08,21,12,12,24.60
2013,08,21,12,13,24.70
2013,08,21,12,14,24.80
2013,08,21,12,15,24.80
2013,08,21,12,16,24.80
2013,08,21,12,17,24.70
2013,08,21,12,18,24.80
2013,08,21,12,19,24.80
2013,08,21,12,20,24.80
2013,08,21,12,21,24.90
2013,08,21,12,22,24.90
2013,08,21,12,23,25.00
2013,08,21,12,24,25.00
2013,08,21,12,25,25.10
2013,08,21,12,26,25.20
2013,08,21,12,27,25.20
2013,08,21,12,28,25.10
2013,08,21,12,29,25.10
2013,08,21,12,30,25.00
2013,08,21,12,31,25.00
2013,08,21,12,32,25.00
2013,08,21,12,33,25.00
2013,08,21,12,34,25.10
2013,08,21,12,35,25.10
2013,08,21,12,36,25.10
2013,08,21,12,37,25.10
2013,08,21,12,38,25.10
2013,08,21,12,39,25.10
2013,08,21,12,40,25.10
2013,08,21,12,41,25.10
2013,08,21,12,42,25.00
2013,08,21,12,43,25.00
2013,08,21,12,44,25.10
2013,08,21,12,45,25.10
2013,08,21,12,46,25.10
2013,08,21,12,47,25.10
2013,08,21,12,48,25.10
2013,08,21,12,49,25.10
2013,08,21,12,50,25.00
2013,08,21,12,51,25.10
2013,08,21,12,52,25.20
2013,08,21,12,53,25.30
2013,08,21,12,54,25.40
2013,08,21,12,55,25.40
2013,08,21,12,56,25.40
2013,08,21,12,57,25.40
2013,08,21,12,58,25.40
2013,08,21,12,59,25.40
2013,08,21,13,00,25.40
2013,08,21,13,01,25.30
2013,08,21,13,02,25.30
2013,08,21,13,03,25.20
2013,08,21,13,04,25.10
2013,08,21,13,05,25.10
2013,08,21,13,06,25.20
2013,08,21,13,07,25.20
2013,08,21,13,08,25.30
2013,08,21,13,09,25.40
2013,08,21,13,10,25.50
2013,08,21,13,11,25.60
2013,08,21,13,12,25.70
2013,08,21,13,13,25.70
2013,08,21,13,14,25.70
2013,08,21,13,15,25.60
2013,08,21,13,16,25.50
2013,08,21,13,17,25.40
2013,08,21,13,18,25.40
2013,08,21,13,19,25.40
2013,08,21,13,20,25.50
2013,08,21,13,21,25.60
2013,08,21,13,22,25.70
2013,08,21,13,23,25.70
2013,08,21,13,24,25.80
2013,08,21,13,25,25.80
2013,08,21,13,26,25.80
2013,08,21,13,27,25.80
2013,08,21,13,28,25.90
2013,08,21,13,29,25.90
2013,08,21,13,30,25.90
2013,08,21,13,31,25.90
2013,08,21,13,32,25.80
2013,08,21,13,33,25.80
2013,08,21,13,34,25.80
2013,08,21,13,35,25.70
2013,08,21,13,36,25.70
2013,08,21,13,37,25.80
2013,08,21,13,38,25.90
2013,08,21,13,39,25.90
2013,08,21,13,40,25.90
2013,08,21,13,41,26.00
2013,08,21,13,42,26.10
2013,08,21,13,43,26.20
2013,08,21,13,44,26.30
2013,08,21,13,45,26.30
2013,08,21,13,46,26.30
2013,08,21,13,47,26.30
2013,08,21,13,48,26.20
2013,08,21,13,49,26.30
2013,08,21,13,50,26.40
2013,08,21,13,51,26.40
2013,08,21,13,52,26.40
2013,08,21,13,53,26.30
2013,08,21,13,54,26.20
2013,08,21,13,55,26.20
2013,08,21,13,56,26.10
2013,08,21,13,57,26.10
2013,08,21,13,58,26.10
2013,08,21,13,59,26.10
2013,08,21,14,00,26.20
2013,08,21,14,01,26.20
2013,08,21,14,02,26.30
2013,08,21,14,03,26.40
2013,08,21,14,04,26.50
2013,08,21,14,05,26.60
2013,08,21,14,06,26.70
2013,08,21,14,07,26.70
2013,08,21,14,08,26.80
2013,08,21,14,09,26.80
2013,08,21,14,10,26.70
2013,08,21,14,11,26.70
2013,08,21,14,12,26.70
2013,08,21,14,13,26.70
2013,08,21,14,14,26.80
2013,08,21,14,15,26.80
2013,08,21,14,16,26.80
2013,08,21,14,17,26.90
2013,08,21,14,18,26.90
2013,08,21,14,19,26.90
2013,08,21,14,20,26.90
2013,08,21,14,21,26.90
2013,08,21,14,22,26.90
2013,08,21,14,23,26.90
2013,08,21,14,24,26.80
2013,08,21,14,25,26.80
2013,08,21,14,26,26.80
2013,08,21,14,27,26.70
2013,08,21,14,28,26.60
2013,08,21,14,29,26.60
2013,08,21,14,30,26.60
2013,08,21,14,31,26.50
2013,08,21,14,32,26.50
2013,08,21,14,33,26.40
2013,08,21,14,34,26.40
2013,08,21,14,35,26.50
2013,08,21,14,36,26.50
2013,08,21,14,37,26.60
2013,08,21,14,38,26.70
2013,08,21,14,39,26.70
2013,08,21,14,40,26.70
2013,08,21,14,41,26.70
2013,08,21,14,42,26.70
2013,08,21,14,43,26.70
2013,08,21,14,44,26.80
2013,08,21,14,45,26.80
2013,08,21,14,46,26.90
2013,08,21,14,47,27.00
2013,08,21,14,48,27.00
2013,08,21,14,49,27.10
2013,08,21,14,50,27.10
2013,08,21,14,51,27.10
2013,08,21,14,52,27.10
2013,08,21,14,53,27.10
2013,08,21,14,54,27.10
2013,08,21,14,55,27.10
2013,08,21,14,56,27.20
2013,08,21,14,57,27.20
2013,08,21,14,58,27.20
2013,08,21,14,59,27.20
2013,08,21,15,00,27.10
2013,08,21,15,01,27.00
2013,08,21,15,02,27.00
2013,08,21,15,03,27.10
2013,08,21,15,04,27.10
2013,08,21,15,05,27.10
2013,08,21,15,06,27.10
2013,08,21,15,07,27.10
2013,08,21,15,08,27.20
2013,08,21,15,09,27.30
2013,08,21,15,10,27.30
2013,08,21,15,11,27.30
2013,08,21,15,12,27.30
2013,08,21,15,13,27.30
2013,08,21,15,14,27.30
2013,08,21,15,15,27.30
2013,08,21,15,16,27.40
2013,08,21,15,17,27.40
2013,08,21,15,18,27.50
2013,08,21,15,19,27.60
2013,08,21,15,20,27.60
2013,08,21,15,21,27.60
2013,08,21,15,22,27.60
2013,08,21,15,23,27.60
2013,08,21,15,24,27.60
2013,08,21,15,25,27.60
2013,08,21,15,26,27.60
2013,08,21,15,27,27.60
2013,08,21,15,28,27.60
2013,08,21,15,29,27.60
2013,08,21,15,30,27.60
2013,08,21,15,31,27.60
2013,08,21,15,32,27.60
2013,08,21,15,33,27.60
2013,08,21,15,34,27.60
2013,08,21,15,35,27.60
2013,08,21,15,36,27.60
2013,08,21,15,37,27.70
2013,08,21,15,38,27.80
2013,08,21,15,39,27.90
2013,08,21,15,40,28.00
2013,08,21,15,41,28.00
2013,08,21,15,42,28.00
2013,08,21,15,43,28.00
2013,08,21,15,44,28.00
2013,08,21,15,45,28.10
2013,08,21,15,46,28.20
2013,08,21,15,47,28.30
2013,08,21,15,48,28.40
2013,08,21,15,49,28.60
2013,08,21,15,50,28.70
2013,08,21,15,51,28.70
2013,08,21,15,52,28.80
2013,08,21,15,53,28.90
2013,08,21,15,54,28.90
2013,08,21,15,55,28.90
2013,08,21,15,56,28.80
2013,08,21,15,57,28.70
2013,08,21,15,58,28.70
2013,08,21,15,59,28.70
2013,08,21,16,00,28.70
2013,08,21,16,01,28.60
2013,08,21,16,02,28.50
2013,08,21,16,03,28.50
2013,08,21,16,04,28.40
2013,08,21,16,05,28.30
2013,08,21,16,06,28.20
2013,08,21,16,07,28.10
2013,08,21,16,08,28.00
2013,08,21,16,09,27.90
2013,08,21,16,10,27.80
2013,08,21,16,11,27.80
2013,08,21,16,12,27.80
2013,08,21,16,13,27.80
2013,08,21,16,14,27.80
2013,08,21,16,15,27.80
2013,08,21,16,16,27.80
2013,08,21,16,17,27.80
2013,08,21,16,18,27.80
2013,08,21,16,19,27.80
2013,08,21,16,20,27.80
2013,08,21,16,21,27.80
2013,08,21,16,22,27.90
2013,08,21,16,23,27.90
2013,08,21,16,24,27.90
2013,08,21,16,25,27.80
2013,08,21,16,26,27.80
2013,08,21,16,27,27.90
2013,08,21,16,28,27.90
2013,08,21,16,29,27.90
2013,08,21,16,30,27.90
2013,08,21,16,31,28.00
2013,08,21,16,32,28.00
2013,08,21,16,33,28.00
2013,08,21,16,34,28.00
2013,08,21,16,35,27.90
2013,08,21,16,36,27.90
2013,08,21,16,37,27.90
2013,08,21,16,38,27.80
2013,08,21,16,39,27.80
2013,08,21,16,40,27.80
2013,08,21,16,41,27.70
2013,08,21,16,42,27.70
2013,08,21,16,43,27.70
2013,08,21,16,44,27.70
2013,08,21,16,45,27.70
2013,08,21,16,46,27.70
2013,08,21,16,47,27.70
2013,08,21,16,48,27.80
2013,08,21,16,49,27.70
2013,08,21,16,50,27.70
2013,08,21,16,51,27.70
2013,08,21,16,52,27.70
2013,08,21,16,53,27.70
2013,08,21,16,54,27.70
2013,08,21,16,55,27.70
2013,08,21,16,56,27.70
2013,08,21,16,57,27.70
2013,08,21,16,58,27.70
2013,08,21,16,59,27.70
2013,08,21,17,00,27.70
2013,08,21,17,01,27.60
2013,08,21,17,02,27.60
2013,08,21,17,03,27.50
2013,08,21,17,04,27.50
2013,08,21,17,05,27.40
2013,08,21,17,06,27.40
2013,08,21,17,07,27.40
2013,08,21,17,08,27.50
2013,08,21,17,09,27.50
2013,08,21,17,10,27.60
2013,08,21,17,11,27.60
2013,08,21,17,12,27.60
2013,08,21,17,13,27.60
2013,08,21,17,14,27.60
2013,08,21,17,15,27.60
2013,08,21,17,16,27.60
2013,08,21,17,17,27.60
2013,08,21,17,18,27.60
2013,08,21,17,19,27.60
2013,08,21,17,20,27.60
2013,08,21,17,21,27.70
2013,08,21,17,22,27.70
2013,08,21,17,23,27.70
2013,08,21,17,24,27.70
2013,08,21,17,25,27.70